,,,PA_Meas_PMT16A,,PR_Meas_QMR101_102,,RH_Meas_QMH101,,SR_Meas_QMS101,,TA_Meas_QMH101,,GenWind,,GenWind,
date,time,status,PA,status,PR,status,RH,status,SR,status,TA,status,DirAvg,status,SpdAvg,
2011-04-18, 00:00:04,VALID,999.654,VALID,0,VALID,91.8759,VALID,0,VALID,23.7012,VALID,12,VALID,0.333984,
2011-04-18, 00:01:04,VALID,999.642,VALID,0,VALID,91.853,VALID,0,VALID,23.703,VALID,12,VALID,0.375781,
2011-04-18, 00:02:04,VALID,999.593,VALID,0,VALID,91.8606,VALID,0,VALID,23.6604,VALID,12,VALID,0,
2011-04-18, 00:03:04,VALID,999.59,VALID,0,VALID,91.8759,VALID,0,VALID,23.6817,VALID,12,VALID,0,
2011-04-18, 00:04:04,VALID,999.525,VALID,0,VALID,91.8835,VALID,0,VALID,23.6604,VALID,12,VALID,0,
2011-04-18, 00:05:04,VALID,999.499,VALID,0,VALID,91.8988,VALID,0,VALID,23.6622,VALID,12,VALID,0,
2011-04-18, 00:06:04,VALID,999.449,VALID,0,VALID,91.914,VALID,0,VALID,23.6817,VALID,12,VALID,0,
2011-04-18, 00:07:04,VALID,999.425,VALID,0,VALID,91.9522,VALID,0,VALID,23.6817,VALID,12,VALID,0,
2011-04-18, 00:08:04,VALID,999.401,VALID,0,VALID,91.9751,VALID,0,VALID,23.6817,VALID,12,VALID,0,
2011-04-18, 00:09:04,VALID,999.367,VALID,0,VALID,91.9751,VALID,0,VALID,23.7012,VALID,12,VALID,0,
2011-04-18, 00:10:04,VALID,999.346,VALID,0,VALID,91.9827,VALID,0,VALID,23.7207,VALID,12,VALID,0,
2011-04-18, 00:11:04,VALID,999.303,VALID,0,VALID,92.0132,VALID,0,VALID,23.7207,VALID,196,VALID,0.873438,
2011-04-18, 00:12:04,VALID,999.291,VALID,0,VALID,92.0132,VALID,0,VALID,23.6994,VALID,178,VALID,0.835938,
2011-04-18, 00:13:04,VALID,999.272,VALID,0,VALID,91.9369,VALID,0,VALID,23.7207,VALID,177,VALID,1.00586,
2011-04-18, 00:14:04,VALID,999.258,VALID,0,VALID,91.8988,VALID,0,VALID,23.7402,VALID,176,VALID,0.879297,
2011-04-18, 00:15:04,VALID,999.215,VALID,0,VALID,91.7996,VALID,0.112286,VALID,23.7579,VALID,155,VALID,0.829687,
2011-04-18, 00:16:04,VALID,999.224,VALID,0,VALID,91.7233,VALID,0,VALID,23.7775,VALID,186,VALID,1.41758,
2011-04-18, 00:17:04,VALID,999.182,VALID,0,VALID,91.6851,VALID,0.112286,VALID,23.8555,VALID,202,VALID,0.998828,
2011-04-18, 00:18:04,VALID,999.169,VALID,0,VALID,91.6317,VALID,0.112286,VALID,23.875,VALID,199,VALID,1.21563,
2011-04-18, 00:19:04,VALID,999.148,VALID,0,VALID,91.4639,VALID,0,VALID,23.8963,VALID,192,VALID,1.0582,
2011-04-18, 00:20:04,VALID,999.156,VALID,0,VALID,91.3266,VALID,0.112286,VALID,23.8945,VALID,199,VALID,1.31758,
2011-04-18, 00:21:04,VALID,999.12,VALID,0,VALID,91.2045,VALID,0.112286,VALID,23.8945,VALID,196,VALID,0.960938,
2011-04-18, 00:22:04,VALID,999.13,VALID,0,VALID,91.0824,VALID,0.112286,VALID,23.914,VALID,177,VALID,1.07852,
2011-04-18, 00:23:04,VALID,999.098,VALID,0,VALID,90.9756,VALID,0.112286,VALID,23.914,VALID,169,VALID,1.23594,
2011-04-18, 00:24:04,VALID,999.08,VALID,0,VALID,90.8306,VALID,0.112286,VALID,23.8945,VALID,167,VALID,0.866016,
2011-04-18, 00:25:04,VALID,999.087,VALID,0,VALID,90.762,VALID,0.112286,VALID,23.875,VALID,153,VALID,1.21797,
2011-04-18, 00:26:04,VALID,999.091,VALID,0,VALID,90.762,VALID,0.112286,VALID,23.875,VALID,155,VALID,0.973828,
2011-04-18, 00:27:04,VALID,999.111,VALID,0,VALID,90.7543,VALID,0.112286,VALID,23.836,VALID,154,VALID,0.821484,
2011-04-18, 00:28:04,VALID,999.096,VALID,0,VALID,90.8154,VALID,0.112286,VALID,23.8165,VALID,141,VALID,0.612109,
2011-04-18, 00:29:04,VALID,999.066,VALID,0,VALID,90.8535,VALID,0.112286,VALID,23.8165,VALID,141,VALID,0.273047,
2011-04-18, 00:30:04,VALID,999.08,VALID,0,VALID,90.9146,VALID,0,VALID,23.7597,VALID,141,VALID,0.0738281,
2011-04-18, 00:31:04,VALID,999.107,VALID,0,VALID,91.0061,VALID,0,VALID,23.7597,VALID,141,VALID,0,
2011-04-18, 00:32:04,VALID,999.102,VALID,0,VALID,91.1206,VALID,0,VALID,23.7402,VALID,96,VALID,0,
2011-04-18, 00:33:04,VALID,999.058,VALID,0,VALID,91.1968,VALID,0,VALID,23.7012,VALID,35,VALID,0.642578,
2011-04-18, 00:34:04,VALID,999.024,VALID,0,VALID,91.3037,VALID,0,VALID,23.6817,VALID,21,VALID,0.799219,
2011-04-18, 00:35:04,VALID,999.025,VALID,0,VALID,91.3952,VALID,0,VALID,23.6622,VALID,17,VALID,0.727344,
2011-04-18, 00:36:04,VALID,999.021,VALID,0,VALID,91.4791,VALID,0,VALID,23.6427,VALID,17,VALID,0.4125,
2011-04-18, 00:37:04,VALID,999.029,VALID,0,VALID,91.6012,VALID,0,VALID,23.6232,VALID,17,VALID,0.223828,
2011-04-18, 00:38:04,VALID,999.022,VALID,0,VALID,91.6546,VALID,0,VALID,23.6232,VALID,17,VALID,0.180469,
2011-04-18, 00:39:04,VALID,999.04,VALID,0,VALID,91.7614,VALID,0,VALID,23.6232,VALID,17,VALID,0,
2011-04-18, 00:40:04,VALID,999.049,VALID,0,VALID,91.8225,VALID,0,VALID,23.6232,VALID,17,VALID,0,
2011-04-18, 00:41:04,VALID,999.071,VALID,0,VALID,91.8454,VALID,0,VALID,23.6036,VALID,17,VALID,0,
2011-04-18, 00:42:04,VALID,999.078,VALID,0,VALID,91.8835,VALID,0,VALID,23.5841,VALID,17,VALID,0,
2011-04-18, 00:43:04,VALID,999.07,VALID,0,VALID,91.9445,VALID,0,VALID,23.5841,VALID,17,VALID,0,
2011-04-18, 00:44:04,VALID,999.059,VALID,0,VALID,91.9827,VALID,0,VALID,23.5841,VALID,17,VALID,0,
2011-04-18, 00:45:04,VALID,999.02,VALID,0,VALID,92.0209,VALID,0,VALID,23.5859,VALID,17,VALID,0.0921875,
2011-04-18, 00:46:04,VALID,999.046,VALID,0,VALID,92.0361,VALID,0,VALID,23.5451,VALID,17,VALID,0,
2011-04-18, 00:47:04,VALID,999.031,VALID,0,VALID,92.0895,VALID,0,VALID,23.5451,VALID,17,VALID,0,
2011-04-18, 00:48:04,VALID,999.035,VALID,0,VALID,92.1277,VALID,0,VALID,23.5646,VALID,17,VALID,0.390625,
2011-04-18, 00:49:04,VALID,999.046,VALID,0,VALID,92.1658,VALID,0,VALID,23.5646,VALID,17,VALID,0,
2011-04-18, 00:50:04,VALID,998.982,VALID,0,VALID,92.1811,VALID,0,VALID,23.5646,VALID,17,VALID,0,
2011-04-18, 00:51:04,VALID,998.988,VALID,0,VALID,92.204,VALID,0,VALID,23.5451,VALID,17,VALID,0,
2011-04-18, 00:52:04,VALID,999.019,VALID,0,VALID,92.2268,VALID,0,VALID,23.5451,VALID,17,VALID,0,
2011-04-18, 00:53:04,VALID,998.981,VALID,0,VALID,92.2345,VALID,0,VALID,23.5646,VALID,17,VALID,0,
2011-04-18, 00:54:04,VALID,999.005,VALID,0,VALID,92.2345,VALID,0,VALID,23.5859,VALID,17,VALID,0,
2011-04-18, 00:55:04,VALID,999.02,VALID,0,VALID,92.2726,VALID,0,VALID,23.5646,VALID,17,VALID,0,
2011-04-18, 00:56:04,VALID,999.024,VALID,0,VALID,92.2955,VALID,0,VALID,23.5646,VALID,17,VALID,0,
2011-04-18, 00:57:04,VALID,999.018,VALID,0,VALID,92.2955,VALID,0,VALID,23.5646,VALID,17,VALID,0,
2011-04-18, 00:58:04,VALID,999.038,VALID,0,VALID,92.3108,VALID,0,VALID,23.5646,VALID,17,VALID,0,
2011-04-18, 00:59:04,VALID,999.032,VALID,0,VALID,92.3184,VALID,0,VALID,23.5664,VALID,17,VALID,0,
2011-04-18, 01:00:04,VALID,999.023,VALID,0,VALID,92.3566,VALID,0,VALID,23.5451,VALID,17,VALID,0,
2011-04-18, 01:01:04,VALID,998.981,VALID,0,VALID,92.3489,VALID,0,VALID,23.5469,VALID,17,VALID,0,
2011-04-18, 01:02:04,VALID,998.954,VALID,0,VALID,92.3566,VALID,0,VALID,23.5256,VALID,17,VALID,0,
2011-04-18, 01:03:04,VALID,998.934,VALID,0,VALID,92.3718,VALID,0,VALID,23.5469,VALID,17,VALID,0.460156,
2011-04-18, 01:04:04,VALID,998.89,VALID,0,VALID,92.3871,VALID,0,VALID,23.5061,VALID,17,VALID,0.451953,
2011-04-18, 01:05:04,VALID,998.824,VALID,0,VALID,92.3871,VALID,0,VALID,23.4848,VALID,17,VALID,0.552344,
2011-04-18, 01:06:04,VALID,998.794,VALID,0,VALID,92.3947,VALID,0,VALID,23.5061,VALID,18,VALID,0.529688,
2011-04-18, 01:07:04,VALID,998.745,VALID,0,VALID,92.4176,VALID,0,VALID,23.4866,VALID,124,VALID,0.742969,
2011-04-18, 01:08:04,VALID,998.773,VALID,0,VALID,92.4481,VALID,0,VALID,23.5061,VALID,135,VALID,0.748047,
2011-04-18, 01:09:04,VALID,998.741,VALID,0,VALID,92.4863,VALID,0,VALID,23.5469,VALID,143,VALID,0.841016,
2011-04-18, 01:10:04,VALID,998.721,VALID,0,VALID,92.5015,VALID,0,VALID,23.5451,VALID,143,VALID,0.899219,
2011-04-18, 01:11:04,VALID,998.724,VALID,0,VALID,92.5168,VALID,0,VALID,23.5451,VALID,143,VALID,0.932813,
2011-04-18, 01:12:04,VALID,998.701,VALID,0,VALID,92.5702,VALID,0,VALID,23.5256,VALID,143,VALID,0.926562,
2011-04-18, 01:13:04,VALID,998.726,VALID,0,VALID,92.5626,VALID,0,VALID,23.5256,VALID,143,VALID,0.889453,
2011-04-18, 01:14:04,VALID,998.737,VALID,0,VALID,92.5626,VALID,0,VALID,23.5256,VALID,143,VALID,1.01563,
2011-04-18, 01:15:04,VALID,998.78,VALID,0,VALID,92.5778,VALID,0,VALID,23.5451,VALID,143,VALID,0.864062,
2011-04-18, 01:16:04,VALID,998.736,VALID,0,VALID,92.5549,VALID,0,VALID,23.5451,VALID,143,VALID,0.776953,
2011-04-18, 01:17:04,VALID,998.761,VALID,0,VALID,92.5778,VALID,0,VALID,23.5256,VALID,143,VALID,0.731641,
2011-04-18, 01:18:04,VALID,998.769,VALID,0,VALID,92.5626,VALID,0,VALID,23.5061,VALID,143,VALID,0.612891,
2011-04-18, 01:19:04,VALID,998.745,VALID,0,VALID,92.5702,VALID,0,VALID,23.4866,VALID,143,VALID,0.400781,
2011-04-18, 01:20:04,VALID,998.709,VALID,0,VALID,92.5549,VALID,0,VALID,23.4866,VALID,143,VALID,0.339844,
2011-04-18, 01:21:04,VALID,998.708,VALID,0,VALID,92.5626,VALID,0,VALID,23.4671,VALID,143,VALID,0.464063,
2011-04-18, 01:22:04,VALID,998.714,VALID,0,VALID,92.5626,VALID,0,VALID,23.4671,VALID,143,VALID,0.428906,
2011-04-18, 01:23:04,VALID,998.696,VALID,0,VALID,92.5702,VALID,0,VALID,23.4866,VALID,82,VALID,0.479688,
2011-04-18, 01:24:04,VALID,998.702,VALID,0,VALID,92.6007,VALID,0,VALID,23.4671,VALID,82,VALID,0.464844,
2011-04-18, 01:25:04,VALID,998.693,VALID,0,VALID,92.616,VALID,0,VALID,23.4866,VALID,66,VALID,0.557813,
2011-04-18, 01:26:04,VALID,998.702,VALID,0,VALID,92.616,VALID,0,VALID,23.4671,VALID,66,VALID,0.694141,
2011-04-18, 01:27:04,VALID,998.693,VALID,0,VALID,92.6007,VALID,0,VALID,23.4671,VALID,66,VALID,0.782422,
2011-04-18, 01:28:04,VALID,998.665,VALID,0,VALID,92.6236,VALID,0,VALID,23.428,VALID,66,VALID,0.856641,
2011-04-18, 01:29:04,VALID,998.637,VALID,0,VALID,92.6388,VALID,0,VALID,23.4475,VALID,82,VALID,1.04805,
2011-04-18, 01:30:04,VALID,998.647,VALID,0,VALID,92.6388,VALID,0,VALID,23.428,VALID,98,VALID,1.15664,
2011-04-18, 01:31:04,VALID,998.626,VALID,0,VALID,92.6694,VALID,0,VALID,23.389,VALID,108,VALID,1.24063,
2011-04-18, 01:32:04,VALID,998.6,VALID,0,VALID,92.6541,VALID,0,VALID,23.389,VALID,124,VALID,1.37852,
2011-04-18, 01:33:04,VALID,998.594,VALID,0,VALID,92.6694,VALID,0,VALID,23.389,VALID,135,VALID,1.24102,
2011-04-18, 01:34:04,VALID,998.573,VALID,0,VALID,92.6465,VALID,0,VALID,23.389,VALID,136,VALID,0.886328,
2011-04-18, 01:35:04,VALID,998.567,VALID,0,VALID,92.6617,VALID,0,VALID,23.4085,VALID,140,VALID,0.65,
2011-04-18, 01:36:04,VALID,998.557,VALID,0,VALID,92.6541,VALID,0,VALID,23.4493,VALID,144,VALID,0.441406,
2011-04-18, 01:37:04,VALID,998.546,VALID,0,VALID,92.6617,VALID,0,VALID,23.4866,VALID,238,VALID,0.660937,
2011-04-18, 01:38:04,VALID,998.546,VALID,0,VALID,92.6923,VALID,0,VALID,23.4671,VALID,289,VALID,0.879687,
2011-04-18, 01:39:04,VALID,998.489,VALID,0,VALID,92.6617,VALID,0,VALID,23.4866,VALID,290,VALID,0.837891,
2011-04-18, 01:40:04,VALID,998.483,VALID,0,VALID,92.6541,VALID,0,VALID,23.4866,VALID,290,VALID,0.45625,
2011-04-18, 01:41:04,VALID,998.49,VALID,0,VALID,92.6694,VALID,0,VALID,23.4866,VALID,290,VALID,0.335156,
2011-04-18, 01:42:04,VALID,998.43,VALID,0,VALID,92.677,VALID,0,VALID,23.4866,VALID,290,VALID,0,
2011-04-18, 01:43:04,VALID,998.422,VALID,0,VALID,92.6617,VALID,0,VALID,23.4866,VALID,290,VALID,0,
2011-04-18, 01:44:04,VALID,998.414,VALID,0,VALID,92.6617,VALID,0,VALID,23.4866,VALID,290,VALID,0,
2011-04-18, 01:45:04,VALID,998.39,VALID,0,VALID,92.6617,VALID,0,VALID,23.4866,VALID,290,VALID,0.245312,
2011-04-18, 01:46:04,VALID,998.383,VALID,0,VALID,92.6617,VALID,0,VALID,23.4866,VALID,290,VALID,0,
2011-04-18, 01:47:04,VALID,998.33,VALID,0,VALID,92.6236,VALID,0,VALID,23.5079,VALID,290,VALID,0,
2011-04-18, 01:48:04,VALID,998.3,VALID,0,VALID,92.6312,VALID,0,VALID,23.4884,VALID,290,VALID,0,
2011-04-18, 01:49:04,VALID,998.271,VALID,0,VALID,92.6083,VALID,0,VALID,23.428,VALID,290,VALID,0,
2011-04-18, 01:50:04,VALID,998.25,VALID,0,VALID,92.616,VALID,0,VALID,23.4884,VALID,290,VALID,0,
2011-04-18, 01:51:04,VALID,998.243,VALID,0,VALID,92.5931,VALID,0,VALID,23.4475,VALID,290,VALID,0,
2011-04-18, 01:52:04,VALID,998.261,VALID,0,VALID,92.5549,VALID,0,VALID,23.428,VALID,290,VALID,0,
2011-04-18, 01:53:04,VALID,998.26,VALID,0,VALID,92.532,VALID,0,VALID,23.389,VALID,290,VALID,0,
2011-04-18, 01:54:04,VALID,998.253,VALID,0,VALID,92.4863,VALID,0,VALID,23.4103,VALID,290,VALID,0,
2011-04-18, 01:55:04,VALID,998.269,VALID,0,VALID,92.4557,VALID,0,VALID,23.389,VALID,290,VALID,0,
2011-04-18, 01:56:04,VALID,998.314,VALID,0,VALID,92.41,VALID,0,VALID,23.3695,VALID,290,VALID,0,
2011-04-18, 01:57:04,VALID,998.311,VALID,0,VALID,92.4023,VALID,0,VALID,23.3695,VALID,290,VALID,0,
2011-04-18, 01:58:04,VALID,998.313,VALID,0,VALID,92.3642,VALID,0,VALID,23.3908,VALID,290,VALID,0,
2011-04-18, 01:59:04,VALID,998.281,VALID,0,VALID,92.3184,VALID,0,VALID,23.35,VALID,290,VALID,0,
2011-04-18, 02:00:04,VALID,998.27,VALID,0,VALID,92.265,VALID,0,VALID,23.311,VALID,290,VALID,0,
2011-04-18, 02:01:04,VALID,998.29,VALID,0,VALID,92.2345,VALID,0,VALID,23.2915,VALID,290,VALID,0,
2011-04-18, 02:02:04,VALID,998.267,VALID,0,VALID,92.2345,VALID,0,VALID,23.311,VALID,290,VALID,0,
2011-04-18, 02:03:04,VALID,998.268,VALID,0,VALID,92.265,VALID,0,VALID,23.3305,VALID,290,VALID,0,
2011-04-18, 02:04:04,VALID,998.291,VALID,0,VALID,92.2726,VALID,0,VALID,23.3305,VALID,290,VALID,0,
2011-04-18, 02:05:04,VALID,998.28,VALID,0,VALID,92.3031,VALID,0,VALID,23.3305,VALID,290,VALID,0,
2011-04-18, 02:06:04,VALID,998.278,VALID,0,VALID,92.3337,VALID,0,VALID,23.35,VALID,22,VALID,0,
2011-04-18, 02:07:04,VALID,998.276,VALID,0,VALID,92.3566,VALID,0,VALID,23.35,VALID,22,VALID,0.878125,
2011-04-18, 02:08:04,VALID,998.325,VALID,0,VALID,92.3337,VALID,0,VALID,23.3305,VALID,23,VALID,0.908984,
2011-04-18, 02:09:04,VALID,998.323,VALID,0,VALID,92.3031,VALID,0,VALID,23.3127,VALID,35,VALID,1.03672,
2011-04-18, 02:10:04,VALID,998.318,VALID,0,VALID,92.2421,VALID,0,VALID,23.2347,VALID,35,VALID,0.972266,
2011-04-18, 02:11:04,VALID,998.341,VALID,0,VALID,92.1887,VALID,0,VALID,23.1957,VALID,35,VALID,0.995703,
2011-04-18, 02:12:04,VALID,998.357,VALID,0,VALID,92.1277,VALID,0,VALID,23.0964,VALID,26,VALID,1.12383,
2011-04-18, 02:13:04,VALID,998.317,VALID,0,VALID,92.12,VALID,0,VALID,23.0981,VALID,26,VALID,1.1168,
2011-04-18, 02:14:04,VALID,998.346,VALID,0,VALID,92.1506,VALID,0,VALID,23.0573,VALID,26,VALID,1.21172,
2011-04-18, 02:15:04,VALID,998.356,VALID,0,VALID,92.204,VALID,0,VALID,23.0573,VALID,24,VALID,1.21172,
2011-04-18, 02:16:04,VALID,998.37,VALID,0,VALID,92.265,VALID,0,VALID,23.0573,VALID,24,VALID,1.2168,
2011-04-18, 02:17:04,VALID,998.372,VALID,0,VALID,92.3031,VALID,0,VALID,23.0786,VALID,24,VALID,1.21445,
2011-04-18, 02:18:04,VALID,998.372,VALID,0,VALID,92.3871,VALID,0,VALID,23.0786,VALID,20,VALID,1.6582,
2011-04-18, 02:19:04,VALID,998.37,VALID,0,VALID,92.41,VALID,0,VALID,23.0769,VALID,15,VALID,1.61055,
2011-04-18, 02:20:04,VALID,998.369,VALID,0,VALID,92.4939,VALID,0,VALID,23.0769,VALID,16,VALID,1.58906,
2011-04-18, 02:21:04,VALID,998.352,VALID,0,VALID,92.532,VALID,0,VALID,23.0769,VALID,14,VALID,1.32578,
2011-04-18, 02:22:04,VALID,998.326,VALID,0,VALID,92.5549,VALID,0,VALID,23.0573,VALID,13,VALID,1.27344,
2011-04-18, 02:23:04,VALID,998.288,VALID,0,VALID,92.6083,VALID,0,VALID,23.0573,VALID,13,VALID,0.914453,
2011-04-18, 02:24:04,VALID,998.273,VALID,0,VALID,92.6312,VALID,0,VALID,23.0573,VALID,13,VALID,0.912891,
2011-04-18, 02:25:04,VALID,998.283,VALID,0,VALID,92.6846,VALID,0,VALID,23.0573,VALID,13,VALID,0.644922,
2011-04-18, 02:26:04,VALID,998.253,VALID,0,VALID,92.7075,VALID,0,VALID,23.0573,VALID,13,VALID,0.555078,
2011-04-18, 02:27:04,VALID,998.263,VALID,0,VALID,92.7457,VALID,0,VALID,23.0769,VALID,13,VALID,0.586328,
2011-04-18, 02:28:04,VALID,998.262,VALID,0,VALID,92.738,VALID,0,VALID,23.0573,VALID,13,VALID,0.432422,
2011-04-18, 02:29:04,VALID,998.264,VALID,0,VALID,92.7609,VALID,0,VALID,23.0573,VALID,13,VALID,0.390625,
2011-04-18, 02:30:04,VALID,998.299,VALID,0,VALID,92.7838,VALID,0,VALID,23.0378,VALID,13,VALID,0.0289063,
2011-04-18, 02:31:04,VALID,998.315,VALID,0,VALID,92.7991,VALID,0,VALID,23.0378,VALID,13,VALID,0,
2011-04-18, 02:32:04,VALID,998.302,VALID,0,VALID,92.822,VALID,0,VALID,23.0396,VALID,13,VALID,0,
2011-04-18, 02:33:04,VALID,998.308,VALID,0,VALID,92.7991,VALID,0,VALID,22.9988,VALID,13,VALID,0,
2011-04-18, 02:34:04,VALID,998.296,VALID,0,VALID,92.822,VALID,0,VALID,22.9988,VALID,13,VALID,0,
2011-04-18, 02:35:04,VALID,998.318,VALID,0,VALID,92.8601,VALID,0,VALID,22.9988,VALID,13,VALID,0,
2011-04-18, 02:36:04,VALID,998.298,VALID,0,VALID,92.8677,VALID,0,VALID,23.0378,VALID,25,VALID,0.498828,
2011-04-18, 02:37:04,VALID,998.284,VALID,0,VALID,92.9059,VALID,0,VALID,23.0964,VALID,129,VALID,0.653906,
2011-04-18, 02:38:04,VALID,998.292,VALID,0,VALID,92.9288,VALID,0,VALID,23.1354,VALID,129,VALID,0.682813,
2011-04-18, 02:39:04,VALID,998.263,VALID,0,VALID,92.9364,VALID,0,VALID,23.1744,VALID,129,VALID,0.824609,
2011-04-18, 02:40:04,VALID,998.246,VALID,0,VALID,92.9745,VALID,0,VALID,23.1957,VALID,129,VALID,0.732031,
2011-04-18, 02:41:04,VALID,998.271,VALID,0,VALID,92.9898,VALID,0,VALID,23.1957,VALID,129,VALID,0.715234,
2011-04-18, 02:42:04,VALID,998.217,VALID,0,VALID,92.9745,VALID,0,VALID,23.1957,VALID,129,VALID,0.732422,
2011-04-18, 02:43:04,VALID,998.225,VALID,0,VALID,92.9822,VALID,0,VALID,23.1939,VALID,150,VALID,0.823438,
2011-04-18, 02:44:04,VALID,998.219,VALID,0,VALID,93.0051,VALID,0,VALID,23.2329,VALID,165,VALID,1.29961,
2011-04-18, 02:45:04,VALID,998.211,VALID,0,VALID,93.0051,VALID,0,VALID,23.2737,VALID,166,VALID,1.26836,
2011-04-18, 02:46:04,VALID,998.202,VALID,0,VALID,93.0127,VALID,0,VALID,23.2915,VALID,167,VALID,1.55352,
2011-04-18, 02:47:04,VALID,998.224,VALID,0,VALID,93.0356,VALID,0,VALID,23.311,VALID,173,VALID,1.62891,
2011-04-18, 02:48:04,VALID,998.212,VALID,0,VALID,93.028,VALID,0,VALID,23.3305,VALID,166,VALID,1.35703,
2011-04-18, 02:49:04,VALID,998.234,VALID,0,VALID,93.0356,VALID,0,VALID,23.3713,VALID,168,VALID,1.44922,
2011-04-18, 02:50:04,VALID,998.186,VALID,0,VALID,93.028,VALID,0,VALID,23.3695,VALID,166,VALID,1.44141,
2011-04-18, 02:51:04,VALID,998.178,VALID,0,VALID,93.0127,VALID,0,VALID,23.389,VALID,168,VALID,1.50391,
2011-04-18, 02:52:04,VALID,998.152,VALID,0,VALID,93.0127,VALID,0,VALID,23.4085,VALID,164,VALID,1.83711,
2011-04-18, 02:53:04,VALID,998.124,VALID,0,VALID,92.9898,VALID,0,VALID,23.3872,VALID,161,VALID,1.63125,
2011-04-18, 02:54:04,VALID,998.115,VALID,0,VALID,92.9745,VALID,0,VALID,23.4298,VALID,161,VALID,1.48438,
2011-04-18, 02:55:04,VALID,998.105,VALID,0,VALID,92.9669,VALID,0,VALID,23.4493,VALID,162,VALID,1.1793,
2011-04-18, 02:56:04,VALID,998.107,VALID,0,VALID,92.9364,VALID,0,VALID,23.428,VALID,174,VALID,0.917969,
2011-04-18, 02:57:04,VALID,998.131,VALID,0,VALID,92.9288,VALID,0,VALID,23.428,VALID,175,VALID,0.500781,
2011-04-18, 02:58:04,VALID,998.139,VALID,0,VALID,92.9059,VALID,0,VALID,23.4475,VALID,175,VALID,0,
2011-04-18, 02:59:04,VALID,998.154,VALID,0,VALID,92.8754,VALID,0,VALID,23.4688,VALID,175,VALID,0,
2011-04-18, 03:00:04,VALID,998.174,VALID,0,VALID,92.8601,VALID,0,VALID,23.4671,VALID,293,VALID,0.349219,
2011-04-18, 03:01:04,VALID,998.189,VALID,0,VALID,92.8448,VALID,0,VALID,23.4671,VALID,308,VALID,0,
2011-04-18, 03:02:04,VALID,998.159,VALID,0,VALID,92.8143,VALID,0,VALID,23.4884,VALID,315,VALID,0,
2011-04-18, 03:03:04,VALID,998.186,VALID,0,VALID,92.7914,VALID,0,VALID,23.5079,VALID,337,VALID,0.945313,
2011-04-18, 03:04:04,VALID,998.136,VALID,0,VALID,92.738,VALID,0,VALID,23.5079,VALID,337,VALID,0.795313,
2011-04-18, 03:05:04,VALID,998.133,VALID,0,VALID,92.738,VALID,0,VALID,23.5079,VALID,357,VALID,0.765234,
2011-04-18, 03:06:04,VALID,998.114,VALID,0,VALID,92.7151,VALID,0,VALID,23.5079,VALID,357,VALID,0.324609,
2011-04-18, 03:07:04,VALID,998.113,VALID,0,VALID,92.6846,VALID,0,VALID,23.5061,VALID,357,VALID,0,
2011-04-18, 03:08:04,VALID,998.102,VALID,0,VALID,92.6465,VALID,0,VALID,23.5256,VALID,357,VALID,0,
2011-04-18, 03:09:04,VALID,998.116,VALID,0,VALID,92.616,VALID,0,VALID,23.5061,VALID,357,VALID,0,
2011-04-18, 03:10:04,VALID,998.116,VALID,0,VALID,92.5626,VALID,0,VALID,23.5061,VALID,357,VALID,0,
2011-04-18, 03:11:04,VALID,998.121,VALID,0,VALID,92.532,VALID,0,VALID,23.4848,VALID,357,VALID,0,
2011-04-18, 03:12:04,VALID,998.157,VALID,0,VALID,92.5015,VALID,0,VALID,23.4866,VALID,357,VALID,0,
2011-04-18, 03:13:04,VALID,998.147,VALID,0,VALID,92.4557,VALID,0,VALID,23.4671,VALID,357,VALID,0,
2011-04-18, 03:14:04,VALID,998.146,VALID,0,VALID,92.4252,VALID,0,VALID,23.4671,VALID,357,VALID,0,
2011-04-18, 03:15:04,VALID,998.166,VALID,0,VALID,92.4252,VALID,0,VALID,23.4671,VALID,357,VALID,0,
2011-04-18, 03:16:04,VALID,998.148,VALID,0,VALID,92.3947,VALID,0,VALID,23.4671,VALID,357,VALID,0,
2011-04-18, 03:17:05,VALID,998.153,VALID,0,VALID,92.4023,VALID,0,VALID,23.4671,VALID,357,VALID,0,
2011-04-18, 03:18:05,VALID,998.129,VALID,0,VALID,92.3947,VALID,0,VALID,23.4671,VALID,357,VALID,0,
2011-04-18, 03:19:05,VALID,998.102,VALID,0,VALID,92.3642,VALID,0,VALID,23.4475,VALID,357,VALID,0,
2011-04-18, 03:20:05,VALID,998.1,VALID,0,VALID,92.4023,VALID,0,VALID,23.4475,VALID,357,VALID,0,
2011-04-18, 03:21:05,VALID,998.051,VALID,0,VALID,92.3794,VALID,0,VALID,23.4475,VALID,357,VALID,0,
2011-04-18, 03:22:05,VALID,998.034,VALID,0,VALID,92.4023,VALID,0,VALID,23.4688,VALID,357,VALID,0,
2011-04-18, 03:23:05,VALID,998.017,VALID,0,VALID,92.3947,VALID,0,VALID,23.428,VALID,357,VALID,0,
2011-04-18, 03:24:05,VALID,997.996,VALID,0,VALID,92.4023,VALID,0,VALID,23.428,VALID,357,VALID,0,
2011-04-18, 03:25:05,VALID,997.984,VALID,0,VALID,92.4176,VALID,0,VALID,23.428,VALID,357,VALID,0,
2011-04-18, 03:26:05,VALID,997.976,VALID,0,VALID,92.4405,VALID,0,VALID,23.428,VALID,357,VALID,0,
2011-04-18, 03:27:05,VALID,997.975,VALID,0,VALID,92.4405,VALID,0,VALID,23.4475,VALID,357,VALID,0.167578,
2011-04-18, 03:28:05,VALID,997.972,VALID,0,VALID,92.4634,VALID,0,VALID,23.4688,VALID,122,VALID,0.242188,
2011-04-18, 03:29:05,VALID,997.954,VALID,0,VALID,92.4634,VALID,0,VALID,23.4475,VALID,147,VALID,1.02383,
2011-04-18, 03:30:05,VALID,997.95,VALID,0,VALID,92.4481,VALID,0,VALID,23.4671,VALID,149,VALID,0.983594,
2011-04-18, 03:31:05,VALID,997.941,VALID,0,VALID,92.4252,VALID,0,VALID,23.4866,VALID,149,VALID,0.815625,
2011-04-18, 03:32:05,VALID,997.969,VALID,0,VALID,92.4176,VALID,0,VALID,23.5061,VALID,156,VALID,0.410156,
2011-04-18, 03:33:05,VALID,997.954,VALID,0,VALID,92.3794,VALID,0,VALID,23.5061,VALID,156,VALID,0.662891,
2011-04-18, 03:34:05,VALID,997.969,VALID,0,VALID,92.3413,VALID,0,VALID,23.5469,VALID,156,VALID,0.602344,
2011-04-18, 03:35:05,VALID,997.968,VALID,0,VALID,92.3031,VALID,0,VALID,23.5451,VALID,156,VALID,0.404297,
2011-04-18, 03:36:05,VALID,997.981,VALID,0,VALID,92.2726,VALID,0,VALID,23.5859,VALID,156,VALID,0,
2011-04-18, 03:37:05,VALID,997.995,VALID,0,VALID,92.2497,VALID,0,VALID,23.5841,VALID,156,VALID,0,
2011-04-18, 03:38:05,VALID,998.013,VALID,0,VALID,92.204,VALID,0,VALID,23.5628,VALID,156,VALID,0,
2011-04-18, 03:39:05,VALID,998.031,VALID,0,VALID,92.1506,VALID,0,VALID,23.5841,VALID,156,VALID,0,
2011-04-18, 03:40:05,VALID,998.067,VALID,0,VALID,92.0895,VALID,0,VALID,23.5451,VALID,156,VALID,0,
2011-04-18, 03:41:05,VALID,998.075,VALID,0,VALID,92.0361,VALID,0,VALID,23.5451,VALID,156,VALID,0,
2011-04-18, 03:42:05,VALID,998.138,VALID,0,VALID,91.9522,VALID,0,VALID,23.5256,VALID,156,VALID,0,
2011-04-18, 03:43:05,VALID,998.123,VALID,0,VALID,91.9445,VALID,0,VALID,23.5256,VALID,156,VALID,0,
2011-04-18, 03:44:05,VALID,998.161,VALID,0,VALID,91.9217,VALID,0,VALID,23.5469,VALID,156,VALID,0,
2011-04-18, 03:45:05,VALID,998.162,VALID,0,VALID,91.9064,VALID,0,VALID,23.5256,VALID,156,VALID,0,
2011-04-18, 03:46:05,VALID,998.208,VALID,0,VALID,91.8683,VALID,0,VALID,23.5256,VALID,101,VALID,1.11094,
2011-04-18, 03:47:05,VALID,998.224,VALID,0,VALID,91.8454,VALID,0,VALID,23.5256,VALID,101,VALID,0.776563,
2011-04-18, 03:48:05,VALID,998.223,VALID,0,VALID,91.8148,VALID,0,VALID,23.5256,VALID,101,VALID,0.767969,
2011-04-18, 03:49:05,VALID,998.223,VALID,0,VALID,91.8148,VALID,0,VALID,23.5256,VALID,101,VALID,0.5625,
2011-04-18, 03:50:05,VALID,998.227,VALID,0,VALID,91.8148,VALID,0,VALID,23.5256,VALID,101,VALID,0.459375,
2011-04-18, 03:51:05,VALID,998.251,VALID,0,VALID,91.7843,VALID,0,VALID,23.5061,VALID,101,VALID,0.203516,